User: anonymous   Login
Location: Hamburg
(53.5500°N, 10.0000°E)
Time: 17:19:34
(UTC+02:00)
Language:

Iridium 10 - Orbit

View from above orbital plane
View from above orbital plane
View from above satellite
View from above satellite

Ground track
Ground track

The orbit data is extracted from the following two-line orbital elements,

1 24839U 97030D   16150.45453885 -.00000020  00000-0 -14204-4 0  9999
2 24839  86.3956 150.5033 0002219  83.6645  72.1679 14.34217297991953
Epoch (UTC): 29 May 2016 10:54:32
Eccentricity: 0.0002219
inclination: 86.3956°
perigee height: 776 km
apogee height: 779 km
right ascension of ascending node: 150.5033°
argument of perigee: 83.6645°
revolutions per day: 14.34217297
mean anomaly at epoch: 72.1679°
orbit number at epoch: 99195

The dashed part of the orbit path shows where the satellite is in the earth's shadow,  

DLR